Location: Milton
(43.5183°N, 79.8775°W)
Time: 08:56:00
(UTC+00:00)

COSMOS 2251 DEB - Pass Details

Date: 17 December 2023
Orbit: 707 x 767 km, 74.0° (Epoch: 22 February)

Event Time Altitude Azimuth Distance (km) Brightness Sun altitude
Rises 00:14:29 0° 189° (S) 3,095 ? -26.3°
Reaches altitude 10° 00:16:48 10° 186° (S) 2,185 ? -26.7°
Enters shadow 00:19:11 29° 178° (S) 1,309 ? -27.1°
